This is the latest recevied weather packets stored in our database for station/object CRYC. If no packets are shown the sender has not sent any weather packets the latest 10 day(s).
| Time | Temp. | Humidity | Pressure | Rain* | Wind** | Luminosity | Snow |
|---|---|---|---|---|---|---|---|
| 1777916037 | 24.44° C | - | - | 0 mm | 4.02 m/s, 269° | - | - |
| 1777915439 | 24.44° C | - | - | 0 mm | 2.24 m/s, 287° | - | - |
| 1777914825 | 24.44° C | - | - | 0 mm | 3.58 m/s, 274° | - | - |
| 1777914220 | 24.44° C | - | - | 0 mm | 2.68 m/s, 252° | - | - |
| 1777913612 | 23.33° C | - | - | 0 mm | 4.02 m/s, 277° | - | - |
| 1777913007 | 22.78° C | - | - | 0 mm | 3.58 m/s, 266° | - | - |
| 1777912404 | 23.89° C | - | - | 0 mm | 3.13 m/s, 253° | - | - |
| 1777911194 | 22.78° C | - | - | 0 mm | 2.68 m/s, 270° | - | - |
| 1777910587 | 22.22° C | - | - | 0 mm | 1.79 m/s, 262° | - | - |
| 1777909974 | 22.22° C | - | - | 0 mm | 2.68 m/s, 276° | - | - |
| 1777909368 | 21.67° C | - | - | 0 mm | 1.79 m/s, 262° | - | - |
| 1777908766 | 21.67° C | - | - | 0 mm | 3.13 m/s, 262° | - | - |
| 1777908163 | 21.11° C | - | - | 0 mm | 2.68 m/s, 264° | - | - |
| 1777907558 | 20° C | - | - | 0 mm | 2.68 m/s, 267° | - | - |
| 1777906961 | 19.44° C | - | - | 0 mm | 3.58 m/s, 270° | - | - |
| 1777906345 | 19.44° C | - | - | 0 mm | 3.13 m/s, 276° | - | - |
| 1777905741 | 18.89° C | - | - | 0 mm | 2.24 m/s, 293° | - | - |
| 1777905137 | 18.33° C | - | - | 0 mm | 3.58 m/s, 280° | - | - |
| 1777904528 | 17.78° C | - | - | 0 mm | 4.47 m/s, 260° | - | - |
| 1777903925 | 17.78° C | - | - | 0 mm | 3.58 m/s, 259° | - | - |
| 1777903319 | 17.22° C | - | - | 0 mm | 4.02 m/s, 262° | - | - |
| 1777902715 | 17.22° C | - | - | 0 mm | 3.58 m/s, 321° | - | - |
| 1777902107 | 17.22° C | - | - | 0 mm | 3.13 m/s, 252° | - | - |
| 1777901502 | 17.22° C | - | - | 0 mm | 4.02 m/s, 250° | - | - |
| 1777900896 | 18.33° C | - | - | 0 mm | 5.81 m/s, 243° | - | - |
* Rain latest hour (hover to see other rain measurements)
** Current wind speed in m/s (hover to see current wind gust speed)